Location: Vanderbilt Planetarium & Observatory
(40.9052°N, 73.3671°W)
Time: 12:16:19
(UTC-04:00)

Daily predictions for brighter satellites

Satellite Brightness Start Highest point End
(mag) Time Altitude Azimuth Time Altitude Azimuth Time Altitude Azimuth
Cosmos 1891 Rocket 4.5 20:50:29 10° N 20:56:37 83° E 21:02:39 10° S
COSMOS 2455 2.8 20:52:08 10° SSW 20:58:06 70° ESE 21:04:05 10° NNE
SeaSat 1 3.6 20:56:23 10° ESE 21:00:38 30° NE 21:04:53 10° N
ALOS 3.5 21:03:35 10° S 21:08:00 42° W 21:12:26 10° NNW
Cosmos 2369 Rocket 2.7 21:07:04 10° NNW 21:12:33 47° ENE 21:17:25 13° SE
CZ-4B R/B 4.3 21:10:34 10° NE 21:15:08 32° E 21:19:45 10° SSE
ISS -2.1 21:12:11 10° WSW 21:15:21 46° NNW 21:18:31 10° NE
Cosmos 1666 4.1 21:12:59 10° NNW 21:16:38 38° W 21:20:15 10° SSW
Cosmos 1190 Rocket 4.4 21:13:03 10° S 21:18:04 44° ESE 21:23:06 10° NNE
Cosmos 1602 Rocket 4.1 21:13:49 10° SSW 21:18:15 64° W 21:22:42 10° N
USA 186 4.3 21:18:02 10° SW 21:19:45 15° W 21:21:25 10° WNW
ATLAS 3B R/B 3.0 21:12:28 10° SSW 21:19:56 56° ESE 21:27:17 10° NE
Cosmos 1825 Rocket 4.0 21:17:49 10° SSE 21:22:02 43° E 21:26:14 10° NNE
H-2A R/B 3.9 21:24:32 10° E 21:27:21 15° ENE 21:30:13 10° NNE
Cosmos 1812 Rocket 3.8 21:25:09 10° NNW 21:29:33 71° W 21:33:57 10° S
Tsikada Rocket 4.3 21:24:06 10° SSW 21:30:29 74° W 21:36:53 10° N
PSLV R/B 3.3 21:28:39 10° W 21:32:12 86° N 21:35:25 12° E
YAOGAN 6 3.4 21:31:59 19° SE 21:34:14 38° ENE 21:37:43 10° N
UNK 4.3 21:29:58 10° NNE 21:35:26 62° ESE 21:41:10 10° S
SPOT 1/Viking Rocket 4.0 21:32:17 16° SE 21:36:03 45° ENE 21:40:56 10° N
CZ-2C R/B 3.4 21:34:45 10° SW 21:36:04 14° W 21:37:25 10° WNW
SPOT 5 2.5 21:32:24 14° SSE 21:36:12 84° ENE 21:40:33 10° NNW
Terra 3.7 21:35:49 11° E 21:38:20 16° ENE 21:41:16 10° NNE
USA 234 3.9 21:34:30 11° ESE 21:40:37 49° NNE 21:46:54 10° NW
H-2A R/B 3.2 21:37:21 10° S 21:41:23 40° W 21:45:32 10° NNW
Lacrosse 4 Rocket 1.2 21:38:52 10° SSW 21:42:54 73° ESE 21:46:59 10° NNE
CZ-4 SHROUD 3.5 21:40:45 16° S 21:43:06 64° WSW 21:46:14 10° NNW
ERS-1 Rocket 4.3 21:39:09 10° SSW 21:43:45 37° W 21:48:25 10° NNW
Cosmos 2263 4.3 21:40:08 10° NNW 21:45:43 63° ENE 21:49:30 21° SE
Cosmos 1515 4.2 21:44:33 10° SSW 21:48:20 60° W 21:52:11 10° N
PSLV R/B 3.8 21:47:37 18° S 21:49:44 53° W 21:52:48 10° NNW
COSMOS 2406 4.2 21:51:43 22° SE 21:53:53 28° ESE 21:58:38 10° NE
Cosmos 2142 Rocket 4.5 21:48:02 10° N 21:54:21 82° E 21:59:14 17° S
Cosmos 1066 Rocket 4.3 21:49:21 10° S 21:55:04 90° ESE 22:00:56 10° N
MetOp-A 4.2 21:52:37 17° SSE 21:56:49 83° WSW 22:02:13 10° NNW
Atlas Centaur 2 3.5 21:52:19 10° WSW 21:58:55 37° S 22:03:24 22° SE
Envisat 3.7 21:54:15 11° S 21:59:01 51° W 22:03:59 10° NNW
Cosmos 1634 Rocket 4.0 21:56:08 10° N 22:02:21 83° W 22:07:18 17° S
USA 245 4.1 21:58:44 21° SSE 22:02:44 81° ENE 22:07:37 10° N
Cosmos 407 Rocket 3.5 21:57:35 10° SSW 22:02:52 89° ESE 22:08:06 10° NNE
CZ-4C R/B 4.0 22:02:51 29° ESE 22:04:27 43° ENE 22:08:15 10° N
USA 238 DEB 4.0 21:58:11 10° S 22:04:53 46° ESE 22:11:33 10° NE
USA 238 4.0 21:58:18 10° S 22:04:59 46° ESE 22:11:39 10° NE
Meteor 1-22 Rocket 4.2 22:00:07 10° N 22:05:47 89° E 22:09:45 22° S
Cosmos 1943 Rocket 2.6 22:00:36 10° NNW 22:06:00 50° ENE 22:08:55 26° SE
Cosmos 1953 Rocket 3.7 22:06:21 15° SSW 22:10:00 75° W 22:14:29 10° N
SL-27 R/B 2.6 22:11:35 43° ESE 22:11:42 43° ESE 22:14:54 10° NNE
Cosmos-2242 3.5 22:09:02 10° N 22:13:18 46° ENE 22:14:41 34° SE
Cosmos 1943 4.0 22:07:50 10° SW 22:13:22 52° WNW 22:18:56 10° NNE
Cosmos 1953 2.8 22:15:59 10° N 22:19:46 42° ENE 22:20:31 37° ESE
Cosmos 1607 4.3 22:17:40 25° SSE 22:20:42 42° ESE 22:26:30 10° NE
SL-08 RB Rocket 3.6 22:19:22 34° SSE 22:21:18 81° ENE 22:25:50 10° N
Cosmos 2279 Rocket 3.9 22:15:52 10° N 22:22:09 82° E 22:25:44 27° S
Cosmos 1954 Rocket 3.9 22:19:49 18° SSW 22:23:49 80° ESE 22:29:08 10° NNE
Cosmos 1932 4.3 22:19:22 10° SSW 22:25:32 78° ESE 22:31:47 10° NE
Cosmos 1346 Rocket 4.1 22:27:06 12° SW 22:30:26 37° WNW 22:34:08 10° N
CZ-4C R/B 3.6 22:32:02 19° E 22:32:02 19° E 22:35:02 10° ENE
Cosmos 2208 Rocket 4.4 22:28:43 10° N 22:33:45 50° ENE 22:35:28 36° ESE
Cosmos 1842 3.3 22:35:17 42° SSW 22:36:31 78° W 22:40:27 10° N
SeaSat 1 3.4 22:35:39 24° SSW 22:38:01 38° WSW 22:42:38 10° NW
ARGOS 3.5 22:36:49 28° S 22:39:39 60° WSW 22:45:02 10° NNW
CARTOSAT-1 3.5 22:45:04 56° SE 22:45:56 77° ENE 22:50:16 10° N
Cosmos 1741 Rocket 4.0 22:45:25 43° SSE 22:46:57 62° ESE 22:52:12 10° NNE
Geosat 3.9 22:46:07 10° NNE 22:51:11 84° ESE 22:53:29 33° SSW
ISS -0.1 22:50:25 10° NW 22:52:24 15° NNW 22:54:25 10° NNE
Cosmos 2369 Rocket 3.9 22:51:48 10° NW 22:56:13 24° WSW 22:59:14 15° SW
Landsat 7 4.2 22:58:24 40° SSW 22:59:48 56° W 23:04:29 10° NNW
Cosmos 1850 Rocket 3.9 23:01:16 43° SSW 23:03:04 89° ESE 23:08:18 10° NNE
H-2A R/B 2.1 23:04:51 47° SSW 23:06:10 67° W 23:11:14 10° NNW
Cosmos 1570 Rocket 4.0 23:01:32 10° NNW 23:06:55 77° WSW 23:08:12 52° S
Meteor 2-5 Rocket 4.0 23:06:10 46° SE 23:07:16 53° E 23:12:52 10° NNE
Cosmos 1758 3.9 23:03:43 10° NNW 23:07:44 51° W 23:08:15 47° WSW
Cosmos 1140 Rocket 3.9 23:07:18 27° SW 23:10:07 61° WNW 23:15:20 10° NNE
ATLAS 3B R/B 4.3 23:03:55 10° WSW 23:11:00 38° NW 23:17:54 10° NNE
Spot 4 3.8 23:11:57 60° SSW 23:12:45 75° WSW 23:17:34 10° NNW
IGS 5A 3.6 23:12:41 59° WSW 23:12:59 61° W 23:17:07 10° NNW
Cosmos 1842 Rocket 3.5 23:10:35 10° NNW 23:14:58 73° W 23:15:21 67° SW
Terra 2.2 23:14:42 47° SW 23:15:37 56° W 23:20:19 10° NNW
Cosmos 1340 3.2 23:17:41 52° NE 23:17:41 52° NE 23:20:45 10° NNE
NOSS 3-2 (A) 3.5 23:20:30 52° SSE 23:21:37 60° ESE 23:28:04 10° NE
USA 234 3.5 23:21:50 43° S 23:23:34 53° SW 23:29:59 10° NW
Cosmos 1544 3.5 23:20:39 10° NNW 23:23:55 61° NW 23:23:55 61° NW
Cosmos 1470 3.0 23:24:34 10° N 23:27:56 66° NNW 23:27:56 66° NNW
Cosmos 1092 Rocket 4.0 23:27:08 43° SSW 23:29:22 77° W 23:35:40 10° N
Lacrosse 5 4.1 23:28:27 10° NNW 23:32:15 21° NNE 23:36:03 10° ENE
Cosmos 614 Rocket 4.3 23:30:46 41° SW 23:32:26 61° WNW 23:37:37 10° NNE
H-2A R/B 4.4 23:30:24 10° NE 23:31:55 18° ENE 23:31:55 18° ENE
COSMOS 2406 4.3 23:33:42 16° SW 23:37:57 42° WNW 23:43:25 10° N
Cosmos 1076 Rocket 4.2 23:44:25 44° NE 23:44:25 44° NE 23:47:41 10° NNE
Cosmos 1486 Rocket 4.5 23:46:58 46° E 23:46:58 46° E 23:51:28 10° NNE
Atlas Centaur 2 4.1 23:41:28 10° WSW 23:46:01 25° SW 23:46:01 25° SW
Cosmos 2221 2.7 23:43:50 10° N 23:47:39 69° N 23:47:39 69° N
Cosmos 1766 Rocket 4.2 23:49:03 49° ENE 23:49:03 49° ENE 23:52:45 10° NNE
Cosmos 2082 Rocket 3.4 23:49:20 27° E 23:49:20 27° E 23:53:16 10° NE
Cosmos 1943 Rocket 3.8 23:45:11 10° NW 23:49:21 22° W 23:50:27 21° WSW
S3M 4.2 23:43:57 10° N 23:50:03 55° E 23:51:06 49° ESE
SL-8 R/B 4.0 23:45:36 10° WNW 23:49:39 57° W 23:49:39 57° W
Cosmos 1833 Rocket 4.2 23:52:22 21° E 23:52:22 21° E 23:55:42 10° NE
COSMOS 2487 4.2 23:54:06 29° WNW 23:54:06 29° WNW 23:57:08 10° N
